星链-31196 (STARLINK-31196 )

导读 | 星芒AI

STARLINK-31196 是 SpaceX 星链计划中的一颗低轨通信卫星,属于该计划的第三批部署卫星之一。它运行在约 550 公里的近地轨道上,旨在为全球用户提供高速互联网服务。该卫星采用先进的相控阵天线和激光通信技术,具备高带宽和低延迟特性。作为星链网络的一部分,STARLINK-31196 有助于扩大覆盖范围,提升网络性能,并支持偏远地区的互联网接入。其发射和运行体现了 SpaceX 在构建全球宽带网络方面的持续努力。

基本信息
目录编号:
58868
目录名称:
STARLINK-31196
国际标识:
2024-019R
轨道中心:
EARTH
卫星名称:
星链-31196
卫星全名:
星链-31196 (STARLINK-31196 )
卫星状态:
在轨 (已飞行690 天)
发射日期:
2024-01-29 UTC
国别 :
美国 (US)
星等 :
--
轨道信息
数据来源 国际轨道数据
星历时间: 2025-12-18T09:20:25+0800
1天前
查看轨道信息
半长轴: 6861.178km
偏心率: 0.0000834
轨道倾角: 43.002°
近地点辐角 261.674°
升交点赤经 350.284°
平近点角 98.402°
近地点: 482.47km
远地点: 483.616km
周期: 94.267分钟
每日圈数: 15.275829
详细信息
固有亮度:
5
最大亮度:
0.3
卫星平台:
Starlink v2.0 mini
覆盖范围:
全球
运营商:
太空探索技术公司
运营商所在国:
美国
制造商(研发单位):
太空探索技术公司
制造商所在国:
美国
使用方式:
暂无
卫星简介
星链(Starlink)计划是由太空探索技术公司(SpaceX)提出的一个巨型低轨卫星互联网星座项目,计划在2019年至2024年间在太空搭建由约1.2万颗卫星组成的“星链”网络,其中1584颗将部署在地球上空550千米处的近地轨道,并从2020年开始工作。该卫星仍在工作。
2D轨道图
3D轨道图
轨道高度分析图
轨道倾角分析图
轨道综合分析图
查看轨道综合分析图